Boise, ID

11:08 PM MDT on July 20, 2017 (GMT -0600)
Boise Air Term

Weather History for KBOI - December, 2013

Change the Weather History Date:

Friday, December 6, 2013

  Actual Average Record
Temperature  
Mean Temperature 21 °F 32 °F  
Max Temperature 26 °F 39 °F 63 °F (1987)
Min Temperature 15 °F 25 °F 0 °F (1992)
Degree Days  
Heating Degree Days 44 33  
Month to date heating degree days 216 192  
Since 1 July heating degree days 1510 1446  
Cooling Degree Days 0 0  
Month to date cooling degree days 0 0  
Year to date cooling degree days 1320 942  
Moisture  
Dew Point 10 °F    
Average Humidity 62    
Maximum Humidity 73    
Minimum Humidity 50    
Precipitation  
Precipitation T in 0.05 in 0.62 in (1897)
Month to date precipitation 0.24 0.30  
Year to date precipitation 9.15 10.48  
Snow  
Snow T in 0.20 in 4.20 in (1972)
Month to date snowfall 0.1 1.1  
Since 1 July snowfall 2.1 3.8  
Snow Depth 0.00 in    
Sea Level Pressure  
Sea Level Pressure 30.11 in    
Wind  
Wind Speed 10 mph (SE)    
Max Wind Speed 21 mph    
Max Gust Speed 25 mph    
Visibility 10 miles    
Events Snow    
T = Trace of Precipitation, MM = Missing Value Source: NWS Daily Summary

Daily Weather History Graph

Daily Weather History Graph

Search for Another Location

Airport or City:

Trip Planner

Search our weather history database for the weather conditions in past years. The results will help you decide how hot, cold, wet, or windy it might be!

Date:

Astronomy

Dec. 06, 2013 Rise Set
Actual Time 8:03 AM MST 5:08 PM MST
Civil Twilight 7:31 AM MST 5:40 PM MST
Nautical Twilight 6:55 AM MST 6:16 PM MST
Astronomical Twilight 6:20 AM MST 6:51 PM MST
Moon 11:07 AM MST (12/6) 9:50 PM MST (12/6)
Length of Visible Light 10h 09m
Length of Day
9h 04m
Waxing Crescent, 20% of the Moon is Illuminated
Dec 6
Waxing Crescent
Dec 9
First Quarter
Dec 17
Full
Dec 25
Last Quarter
Jan 1
New

Hourly Weather History & Observations

Time (MST) Temp. Windchill Dew Point Humidity Pressure Visibility Wind Dir Wind Speed Gust Speed Precip Events Conditions
12:53 AM 16.0 °F 5.3 °F 9.0 °F 74% 30.21 in 10.0 mi SE 8.1 mph - N/A   Overcast
1:53 AM 17.1 °F 6.6 °F 8.1 °F 68% 30.20 in 10.0 mi ESE 8.1 mph - N/A   Overcast
2:53 AM 17.1 °F 7.6 °F 8.1 °F 68% 30.20 in 10.0 mi SE 6.9 mph - N/A   Clear
3:53 AM 16.0 °F 6.3 °F 8.1 °F 71% 30.20 in 10.0 mi SE 6.9 mph - N/A   Clear
4:53 AM 16.0 °F 5.3 °F 7.0 °F 68% 30.19 in 10.0 mi ESE 8.1 mph - N/A   Scattered Clouds
5:53 AM 16.0 °F 4.4 °F 6.1 °F 65% 30.18 in 10.0 mi ESE 9.2 mph - N/A   Overcast
6:53 AM 16.0 °F 6.3 °F 6.1 °F 65% 30.19 in 10.0 mi SE 6.9 mph - N/A   Clear
7:53 AM 16.0 °F 6.3 °F 5.0 °F 62% 30.20 in 10.0 mi SE 6.9 mph - N/A   Overcast
8:53 AM 17.1 °F 7.6 °F 5.0 °F 59% 30.21 in 10.0 mi SE 6.9 mph - N/A   Mostly Cloudy
9:53 AM 19.0 °F 8.2 °F 7.0 °F 59% 30.21 in 10.0 mi ESE 9.2 mph - N/A   Overcast
10:53 AM 19.9 °F 9.3 °F 8.1 °F 60% 30.22 in 10.0 mi ESE 9.2 mph - N/A   Overcast
11:11 AM 21.2 °F 8.9 °F 10.4 °F 63% 30.11 in 7.0 mi ESE 12.7 mph - 0.00 in Snow Light Snow
11:24 AM 21.2 °F 9.5 °F 10.4 °F 63% 30.10 in 10.0 mi ESE 11.5 mph - 0.00 in   Overcast
11:53 AM 21.9 °F 11.7 °F 10.0 °F 60% 30.19 in 10.0 mi SE 9.2 mph - 0.00 in   Overcast
12:53 PM 23.0 °F 10.1 °F 10.0 °F 58% 30.17 in 10.0 mi SSE 15.0 mph - N/A   Overcast
1:53 PM 24.1 °F 12.0 °F 10.9 °F 57% 30.14 in 10.0 mi SSE 13.8 mph 23.0 mph N/A   Overcast
2:53 PM 26.1 °F 13.6 °F 10.0 °F 51% 30.09 in 10.0 mi SE 16.1 mph - N/A   Overcast
3:53 PM 26.1 °F 14.0 °F 10.0 °F 51% 30.09 in 10.0 mi SSE 15.0 mph - N/A   Overcast
4:53 PM 25.0 °F 14.8 °F 10.0 °F 53% 30.07 in 10.0 mi SE 10.4 mph - N/A   Mostly Cloudy
5:53 PM 23.0 °F 12.4 °F 10.0 °F 58% 30.06 in 10.0 mi SSE 10.4 mph - N/A   Overcast
6:53 PM 21.9 °F 12.5 °F 10.0 °F 60% 30.04 in 10.0 mi SE 8.1 mph - N/A   Overcast
7:53 PM 25.0 °F 15.5 °F 9.0 °F 51% 30.02 in 10.0 mi ESE 9.2 mph 19.6 mph N/A   Overcast
8:53 PM 24.1 °F 11.5 °F 12.9 °F 62% 29.98 in 10.0 mi ESE 15.0 mph 20.7 mph N/A   Overcast
9:53 PM 24.1 °F 12.0 °F 14.0 °F 65% 29.96 in 10.0 mi ESE 13.8 mph - N/A   Overcast
10:53 PM 24.1 °F 12.0 °F 15.1 °F 69% 29.94 in 9.0 mi SE 13.8 mph - N/A   Overcast
11:12 PM 23.0 °F 10.1 °F 15.8 °F 74% 29.85 in 6.0 mi ESE 15.0 mph - 0.00 in Snow Light Snow
11:53 PM 23.0 °F 10.6 °F 18.0 °F 81% 29.91 in 2.5 mi ESE 13.8 mph - 0.00 in Snow Light Snow